{"data":{"norad_id":56341,"epoch":"2026-09-20T22:00:03.000096Z","epoch_age_seconds":72771,"freshness":"FRESH","line1":"1 56341U 23058AA  26263.91670139  .00081934  00000+0  37358-2 0  9994","line2":"2 56341  97.2862 257.8145 0001696  67.7346 127.8716 15.20296653  5637","mean_motion":15.20296653,"eccentricity":0.0001696,"inclination_deg":97.2862,"raan_deg":257.8145,"arg_perigee_deg":67.7346,"mean_anomaly_deg":127.8716,"bstar":0.0037358,"rev_number":563,"period_min":94.718356260171,"perigee_km":503.77770769888,"apogee_km":506.11244913988,"semimajor_km":6883.0820784194,"source":"CELESTRAK","updated_at":"2026-09-21T09:00:33.405295Z"}}